Tracking 25710 objects as of 5-Jul-2022
HD Live streaming from Space Station
objects crossing your sky now

FENGYUN 1C DEB

Track FENGYUN 1C DEB now!
10-day predictions


NORAD ID: 37428
Int'l Code: 1999-025EGW
Perigee: 792.5 km
Apogee: 898.9 km
Inclination: 97.7 °
Period: 101.7 minutes
Semi major axis: 7216 km
RCS: 0.0129 m2 (small)
Launch date: May 10, 1999
Source: People's Republic of China (PRC)
Launch site: Taiyaun Space Center, China (TSC)

Note: This is SATELLITE DEBRIS
aabbcc
Your satellite tracking list
Your tracking list is empty




NASA's NSSDC Master Catalog

Two Line Element Set (TLE):
1 37428U 99025EGW 22186.20674444  .00001786  00000-0  89769-3 0  9993
2 37428  97.7176 180.3679 0073684 243.9492 115.4087 14.16106297767731
Source of the keplerian elements: AFSPC